Dewpoint
68 65 64 63 57 54 50 52 57 49 47 47 47 50 53 54 52 54 63 64 64 66 69 71 73 72 72 72 72 71 70 70 71 70 71 72 72 72 72 72 72 72 72 72 72 72 72 72 71
61 60 60 60 56 49 51 55 55 53 47 48 53 54 52 53 56 60 62 62 63 64 64 68 72 73 73 72 72 72 72 72 72 72 71 71 72 71 72 72 72 72 72 71 72 72 72 72 71
67 60 60 58 56 52 53 57 57 51 47 50 55 52 52 53 56 60 62 62 61 62 65 70 73 73 72 73 72 72 72 71 72 72 71 71 72 71 72 72 72 72 72 71 72 72 71 70 70
61 61 60 58 55 56 57 58 51 48 51 54 53 50 52 55 56 59 61 62 63 63 67 72 72 73 72 72 72 72 72 72 72 72 72 72 72 71 72 72 72 72 71 71 70 71 71 70 70
60 62 58 55 55 57 60 54 53 48 54 52 51 50 52 56 57 57 59 63 64 64 67 71 73 73 72 72 72 72 71 71 72 71 71 71 71 71 72 72 72 71 71 71 71 72 71 71 71
59 62 56 53 53 57 57 58 55 55 55 52 50 51 53 56 56 58 60 63 65 64 67 70 72 72 72 72 72 71 71 72 72 72 71 71 71 71 71 71 71 71 71 71 72 72 71 71 71
59 59 55 53 55 57 58 61 55 54 55 54 54 53 53 54 56 59 60 63 60 64 66 68 70 72 73 72 72 71 72 72 71 71 71 70 70 71 71 71 71 70 71 71 72 71 71 71 70
60 60 56 53 54 56 59 61 63 58 57 57 54 53 51 54 56 59 61 65 64 61 64 66 69 70 69 71 72 71 71 72 71 71 71 71 70 70 71 72 71 70 70 71 72 72 70 70 69
61 57 54 55 54 58 60 60 63 62 56 58 55 52 53 54 58 59 57 63 63 62 64 66 67 69 70 70 71 71 71 71 70 71 69 70 69 69 69 71 71 70 70 70 71 72 71 70 69
61 55 55 55 56 58 58 58 60 58 55 55 51 52 53 53 60 59 58 58 58 63 67 68 67 68 68 65 71 70 70 70 69 69 70 69 68 66 67 71 71 71 71 71 71 69 68 71 67
60 53 56 56 57 58 58 58 60 56 55 53 51 52 52 52 55 55 57 56 57 64 66 65 68 69 65 67 69 71 71 70 68 69 70 70 65 67 68 71 70 71 71 69 70 72 71 70 70
58 54 55 56 56 57 57 58 58 59 60 55 54 53 52 51 51 57 58 57 63 64 64 63 68 67 68 67 68 68 70 66 66 66 65 66 69 67 68 69 69 69 70 65 69 70 69 64 61
57 53 54 57 56 56 56 56 58 62 65 57 55 53 52 51 50 52 53 54 63 64 63 63 67 67 69 66 68 67 65 64 63 65 66 69 66 68 69 65 68 68 69 67 68 68 64 65 66
53 51 48 52 57 56 54 59 58 63 65 60 55 53 52 50 49 51 52 54 55 63 62 63 66 66 67 69 67 64 65 64 65 66 66 69 68 70 70 69 69 67 69 68 56 66 68 64 65
51 52 46 49 55 55 56 56 57 59 63 59 55 53 51 51 50 51 52 54 55 59 63 64 63 66 68 67 64 68 68 67 66 66 68 68 70 70 69 65 67 69 70 70 69 69 67 66 65
50 48 42 46 52 55 56 54 58 60 59 56 54 53 50 51 50 51 52 53 56 60 63 63 60 66 66 66 68 67 67 68 67 67 68 70 69 68 70 69 67 69 65 69 66 68 65 64 64
44 42 42 42 50 53 54 57 61 58 57 55 54 53 50 50 51 52 52 54 56 62 63 63 63 65 67 67 69 68 67 68 66 69 67 70 69 69 71 69 67 71 67 68 66 66 64 64 63
37 37 41 41 47 52 54 55 60 59 57 56 55 53 51 50 51 52 51 54 56 62 64 64 63 67 69 68 69 68 68 68 68 70 69 70 70 69 70 70 69 66 69 68 64 65 63 65 58
35 34 42 46 50 51 52 56 56 58 56 56 54 54 51 51 51 52 52 52 56 61 64 65 66 68 69 67 67 66 66 68 69 70 71 71 70 70 70 70 70 67 70 64 70 69 68 65 66
33 32 38 44 47 56 53 55 56 56 55 57 55 54 52 50 52 53 53 53 56 61 64 66 68 68 69 67 67 67 68 67 69 69 70 70 71 70 70 70 70 68 68 69 68 64 67 63 65
28 30 37 40 45 49 49 53 51 57 58 60 60 62 55 50 53 56 55 55 57 62 64 67 69 68 69 67 68 69 68 69 69 69 69 68 70 71 71 70 71 70 68 69 69 69 64 64 64
26 31 40 42 43 45 51 45 55 55 56 59 59 61 61 50 55 58 57 56 56 61 64 67 70 69 70 70 66 67 65 64 66 68 71 70 69 70 69 70 70 69 67 64 70 67 67 67 64
27 32 36 31 30 28 31 33 51 56 57 53 59 60 60 61 55 57 58 58 55 58 62 67 69 70 69 70 69 67 67 66 66 70 70 71 70 70 69 71 70 70 71 69 70 68 69 69 68
29 30 32 33 28 23 32 33 48 52 54 56 57 62 59 62 58 58 59 60 58 59 61 66 69 71 71 70 70 70 67 66 66 67 67 69 70 70 70 71 71 70 66 63 71 69 69 69 71
29 27 25 27 26 22 21 28 47 52 57 59 57 61 60 63 63 61 59 59 59 58 61 67 70 70 71 70 70 71 69 69 68 68 67 68 66 69 69 71 71 71 71 70 70 70 70 71 69
26 24 24 22 21 21 21 28 48 52 58 56 53 61 59 58 63 64 59 61 61 57 60 65 70 71 71 70 71 72 72 70 68 68 69 67 67 69 71 70 72 72 70 70 70 71 70 70 69
26 24 27 23 22 19 36 46 50 52 53 55 57 60 61 64 64 64 61 61 61 59 61 64 69 71 71 71 72 73 73 72 67 66 69 67 70 68 71 70 71 70 70 70 71 70 70 70 70
30 26 24 24 20 17 36 42 43 49 52 54 56 57 59 62 65 66 66 66 61 60 61 64 69 70 71 70 71 72 73 73 73 72 69 69 71 70 70 70 70 70 71 70 71 71 69 70 70
28 26 24 23 20 17 33 41 47 50 53 54 56 57 59 60 63 65 65 65 67 65 62 62 68 69 70 71 71 71 72 72 73 72 71 69 70 71 69 60 67 70 70 71 70 69 69 69 69
25 26 26 23 24 20 37 43 49 52 54 55 55 57 59 60 60 63 64 64 63 65 68 67 66 65 68 70 71 71 72 71 72 72 71 71 71 71 70 71 70 70 70 70 70 70 68 68 69
Wind_Speed
12 12 12 10 5 3 1 6 3 13 9 20 21 22 20 22 12 21 28 28 26 24 20 17 15 16 15 13 14 13 12 12 12 12 11 13 12 12 12 12 13 14 16 17 18 17 16 16 17
16 13 13 3 5 5 3 4 6 3 18 26 27 24 20 29 33 32 26 29 28 24 22 18 14 13 17 15 15 14 12 11 13 13 12 12 12 12 12 12 15 15 15 16 16 17 16 16 15
14 15 2 3 4 2 3 2 10 10 18 24 24 21 18 29 31 28 31 31 29 25 22 19 15 14 17 15 14 14 13 12 13 13 12 13 12 12 12 15 15 15 17 16 16 16 17 15 12
8 4 4 4 9 4 1 10 14 22 23 25 25 22 27 24 31 33 32 33 25 27 23 20 16 16 15 15 15 14 13 13 14 13 14 13 13 13 14 15 15 16 15 15 15 16 15 13 11
6 3 6 1 7 4 7 14 9 18 23 20 29 30 23 28 28 28 27 30 31 25 22 19 17 17 15 15 15 14 13 13 13 13 15 14 14 14 14 15 16 15 14 16 16 16 14 11 8
2 3 3 11 10 6 5 13 7 22 25 25 31 28 27 27 26 27 29 28 28 27 24 18 16 15 15 16 15 14 14 14 13 13 15 14 14 14 14 15 16 15 14 16 14 15 13 10 6
4 9 3 15 14 7 8 9 9 16 23 22 22 26 26 25 25 24 27 16 23 27 25 19 17 15 15 14 15 14 13 13 13 13 13 15 14 14 15 15 15 15 15 15 15 15 13 10 7
9 4 2 9 14 5 11 6 9 3 9 17 20 23 29 27 28 21 26 13 17 26 26 22 19 17 16 14 13 13 13 12 12 12 12 15 15 15 15 14 13 15 16 15 14 13 13 13 10
6 6 4 4 20 13 13 8 4 8 11 2 14 27 28 27 33 18 24 27 13 17 22 22 21 18 16 15 13 11 8 9 12 10 11 11 14 14 12 14 13 13 13 14 13 10 6 5 9
2 3 8 5 20 22 16 11 5 4 13 8 29 30 29 27 37 28 14 14 17 25 23 13 20 19 18 16 16 15 9 7 7 10 10 8 10 13 14 12 12 11 10 11 13 15 7 10 10
7 3 4 17 19 23 20 13 5 11 12 22 32 33 29 26 30 27 22 20 18 33 26 18 18 15 12 16 14 14 9 9 6 6 12 7 13 15 11 10 10 6 6 4 9 12 12 14 15
3 4 9 15 21 19 18 12 9 2 4 19 30 30 26 25 23 31 26 24 29 22 21 19 21 6 11 12 14 18 15 11 8 8 17 8 5 4 10 5 10 16 15 5 9 9 10 1 12
10 1 13 21 19 19 23 17 15 3 9 14 29 28 26 23 22 22 24 21 32 26 21 20 24 21 7 3 11 16 12 11 13 5 3 6 11 8 12 6 6 1 10 9 7 9 5 7 9
4 5 14 13 13 17 17 21 20 14 13 9 27 28 26 23 20 19 21 20 17 27 19 19 16 8 8 5 12 9 8 13 12 14 7 8 10 12 10 4 2 2 6 12 4 2 4 2 5
11 11 19 19 19 17 16 16 15 14 31 21 29 27 26 23 21 20 18 20 17 19 21 19 16 10 5 7 9 3 12 10 15 10 5 10 14 5 14 7 5 10 4 7 12 4 5 1 6
22 12 12 20 24 16 14 16 17 16 22 23 28 26 26 24 24 20 19 20 19 16 20 19 19 17 8 7 5 13 8 2 8 13 8 6 5 4 6 10 8 8 8 4 12 3 3 8 7
19 20 22 9 24 27 14 14 7 18 21 26 24 25 26 24 24 18 21 21 17 19 18 12 19 17 15 6 6 17 17 11 7 9 11 11 7 2 2 8 8 9 4 1 4 5 4 4 9
22 25 20 23 18 18 18 23 24 20 22 26 22 21 25 25 25 20 20 21 20 19 18 10 16 15 17 11 8 5 16 10 10 11 8 7 5 5 4 4 7 8 5 7 5 4 1 1 7
26 24 17 6 10 26 20 24 24 25 23 25 22 21 24 25 24 21 21 22 20 19 19 12 19 14 12 8 11 13 12 12 10 12 10 16 13 6 4 2 11 4 8 3 4 2 7 3 6
28 12 11 14 4 13 16 21 9 22 19 14 22 20 21 24 23 22 21 23 23 21 19 15 19 17 11 12 8 4 4 11 14 12 9 6 11 5 4 2 11 8 4 3 3 2 6 3 9
30 21 19 15 18 18 27 16 14 23 20 8 7 12 15 24 25 22 19 23 24 24 20 17 19 18 13 12 8 2 4 9 9 8 11 6 11 9 4 4 7 3 2 5 4 2 4 6 1
29 22 19 33 30 17 41 12 31 29 25 19 18 17 18 16 22 27 22 19 25 25 22 19 18 20 15 10 10 8 7 7 12 16 12 7 7 9 6 6 9 15 4 6 10 3 4 3 5
24 22 27 21 16 17 23 13 12 20 25 23 22 18 21 24 26 19 25 24 22 25 23 22 18 20 15 11 4 10 7 4 6 9 15 9 4 6 7 9 5 9 9 5 9 2 2 3 7
21 25 10 13 14 20 20 18 11 10 8 25 21 21 18 28 18 27 25 24 17 26 25 23 21 20 16 14 8 12 6 4 1 9 12 11 9 8 10 8 6 5 8 11 5 0 2 4 5
22 24 19 15 20 18 21 22 10 6 14 5 26 20 37 32 10 17 29 24 22 28 26 25 23 20 17 18 14 12 8 7 4 12 9 12 7 7 12 10 9 8 6 8 7 3 3 2 5
24 28 19 21 22 20 25 6 11 18 28 9 12 32 25 16 15 28 30 19 19 30 28 27 25 22 20 19 17 14 11 8 7 9 7 13 11 9 12 11 10 6 12 8 6 6 6 9 5
21 30 23 19 22 24 13 17 22 23 13 10 5 9 12 14 37 30 18 28 24 27 29 27 27 23 21 19 17 15 14 14 11 12 10 6 14 10 2 9 11 9 7 9 8 7 7 5 4
14 26 22 25 23 20 16 21 19 21 16 10 7 11 14 20 17 18 13 18 28 20 28 28 28 26 23 21 19 18 16 15 13 10 7 6 10 16 13 6 13 12 11 10 10 10 9 11 7
18 17 24 27 24 22 12 10 19 17 11 8 10 16 16 14 15 15 16 26 23 10 8 23 28 26 22 21 21 20 19 17 14 12 8 8 3 19 16 15 23 13 10 11 11 10 4 8 9
20 21 20 23 27 21 9 8 13 15 12 11 11 17 18 16 16 17 13 23 17 23 22 19 4 26 22 22 21 21 19 19 18 17 14 12 11 8 8 16 13 12 14 11 13 11 8 11 12
Wind_Direction
192 212 224 245 244 72 165 254 39 98 119 89 73 75 71 45 77 112 136 127 132 126 126 122 115 116 112 109 107 104 102 101 100 98 96 88 94 94 94 93 90 82 85 85 90 92 94 96 94
192 210 240 305 259 163 160 269 61 136 96 87 77 70 68 83 103 113 122 133 126 133 127 126 120 114 113 106 122 104 103 102 94 106 91 99 95 102 103 93 92 89 92 88 90 93 95 93 90
264 238 294 245 251 192 110 125 168 134 110 98 84 72 98 112 123 121 136 142 133 128 118 123 121 114 115 106 107 102 107 103 96 99 108 106 105 102 96 93 94 94 92 95 94 93 94 95 96
226 12 253 250 29 341 305 174 150 128 101 104 103 94 104 114 114 127 141 108 108 117 120 125 122 112 113 110 107 105 101 104 102 108 109 103 105 103 99 101 99 95 101 108 103 100 95 98 97
211 205 240 126 90 263 251 161 69 129 76 97 111 119 109 108 125 128 118 121 126 118 124 127 125 116 117 111 109 107 105 104 104 107 102 99 103 103 100 98 95 99 107 100 108 103 105 105 107
273 237 281 102 128 212 113 44 93 94 96 107 117 113 112 124 139 122 117 128 125 130 119 126 124 118 118 114 114 112 113 112 111 102 109 104 103 104 102 100 98 107 108 113 111 106 107 114 119
238 275 346 125 130 136 103 53 116 113 119 124 122 123 125 143 133 128 126 107 124 126 125 135 129 120 117 114 114 113 111 116 117 118 116 117 109 104 104 103 105 112 120 116 115 117 126 139 158
227 269 50 149 134 128 129 108 347 101 107 138 127 146 143 141 135 112 107 138 133 137 137 133 139 141 131 123 117 117 121 128 129 124 129 130 121 115 116 114 111 118 129 131 133 133 147 161 171
211 279 11 137 139 144 137 126 12 292 147 109 128 146 138 151 125 121 133 105 217 132 133 123 122 130 125 130 119 110 118 151 139 143 138 148 131 122 125 111 126 128 141 146 131 129 140 233 198
94 301 5 101 135 142 142 143 132 135 140 138 129 133 145 155 118 127 136 148 139 120 96 113 139 146 155 128 152 127 140 195 189 136 168 199 138 129 128 140 143 143 158 146 144 120 200 207 206
208 39 22 100 124 139 136 131 127 157 150 140 139 144 158 155 146 139 154 165 152 132 138 147 135 145 157 129 154 136 156 198 176 178 180 203 128 136 149 151 138 121 202 179 195 182 201 207 245
55 226 114 124 133 141 151 141 136 163 187 135 142 150 155 160 159 150 169 171 110 109 125 129 98 133 189 150 151 153 165 154 155 84 134 186 187 49 118 163 154 159 101 358 273 218 182 28 61
172 294 129 130 152 146 142 153 144 171 288 133 144 157 160 165 161 153 138 150 129 136 132 133 132 178 140 108 189 180 145 133 125 97 317 142 92 96 116 28 34 278 156 162 114 202 52 325 40
141 192 131 137 155 159 158 137 137 172 199 191 154 164 165 168 154 142 135 133 137 130 147 121 110 117 92 98 94 106 176 135 156 145 107 105 117 69 58 58 208 325 111 133 131 4 141 295 61
229 213 195 166 165 153 156 151 129 143 171 175 166 168 167 164 159 152 147 133 140 139 125 123 124 131 125 112 125 110 43 18 104 111 107 134 104 126 140 184 199 274 35 50 20 237 126 241 150
227 236 208 183 159 161 152 160 142 163 167 172 165 169 170 160 160 161 153 144 144 137 130 151 145 139 164 152 93 98 6 340 116 146 145 98 79 138 152 181 220 101 2 63 192 283 174 187 173
214 216 202 203 157 163 157 131 164 159 169 167 173 174 170 165 159 166 154 151 159 131 138 168 135 146 149 184 152 135 154 255 98 127 143 145 167 181 13 149 200 85 210 248 49 62 24 28 25
207 231 173 188 160 152 160 159 174 180 173 165 182 178 171 167 163 165 159 154 160 138 140 166 143 140 145 185 165 154 115 235 150 135 141 136 149 166 99 287 70 77 17 119 125 169 230 166 159
218 215 130 292 289 162 166 160 167 184 180 169 177 185 184 173 158 169 171 155 155 152 152 173 137 143 139 184 162 202 165 161 138 156 171 144 217 155 256 28 139 55 291 101 78 41 241 278 158
254 248 179 159 72 74 117 148 150 173 181 165 174 192 191 177 160 170 173 160 162 156 159 164 140 148 178 201 232 201 156 162 146 154 146 181 127 167 229 294 119 147 214 269 116 125 313 15 82
238 244 186 166 117 67 262 161 158 199 182 162 185 264 227 178 163 166 183 167 160 155 162 165 152 157 204 199 225 100 90 126 123 166 159 177 159 173 157 166 116 149 145 325 258 193 39 15 27
235 232 126 196 178 173 213 157 183 173 167 177 186 243 267 188 173 168 183 178 165 156 163 165 160 164 203 231 199 193 195 184 177 186 127 164 194 176 166 175 175 106 135 273 278 145 358 337 341
237 229 179 239 182 218 197 219 157 153 175 184 192 204 240 264 180 179 180 187 167 158 165 165 169 167 193 214 211 177 230 61 301 110 133 184 180 145 193 167 175 142 121 227 240 104 34 43 355
228 252 180 213 242 231 207 229 151 147 182 199 186 193 239 251 204 189 194 190 174 160 164 163 172 173 185 199 201 223 191 227 75 238 155 187 182 192 196 187 163 147 148 234 268 19 336 352 347
219 235 218 212 222 236 244 212 131 156 70 269 165 179 207 229 235 222 203 194 185 164 164 162 170 177 185 188 195 214 203 216 219 162 166 157 193 260 220 177 166 179 172 234 208 214 299 253 310
219 227 214 209 224 232 248 242 132 151 139 163 147 147 175 180 222 252 188 210 194 167 166 163 172 178 184 184 196 199 224 218 230 236 193 155 176 234 197 184 170 203 184 206 164 200 227 235 223
204 230 245 225 221 227 142 105 120 121 116 113 96 46 26 8 196 203 200 200 202 175 167 167 172 179 185 190 191 197 199 225 214 225 217 218 168 143 269 323 184 189 201 202 189 230 219 176 231
266 216 238 240 253 242 154 162 156 156 138 145 124 71 40 27 46 58 43 345 196 179 172 169 171 178 185 195 192 196 202 211 230 257 212 245 131 148 165 266 295 191 198 204 193 236 225 201 213
225 246 230 241 239 237 157 101 115 115 126 128 87 73 66 53 49 60 65 30 7 334 119 188 171 177 185 193 193 197 197 204 213 228 226 230 235 156 155 175 245 221 203 207 208 236 269 191 232
225 223 235 236 247 261 71 82 104 111 110 104 84 80 79 79 65 46 82 82 26 21 22 15 1 174 186 195 196 193 191 196 199 208 216 213 213 209 225 198 217 182 224 220 211 220 241 195 224